Denver Centennial, CO

6:57 AM MST on November 21, 2019 (GMT -0700)
Centennial

Weather History for KAPA - October, 2019

Change the Weather History Date:

Tuesday, October 22, 2019

  Actual Average Record
Temperature  
Mean Temperature 46 °F -  
Max Temperature 64 °F 59 °F 82 °F (2003)
Min Temperature 28 °F 32 °F 21 °F (2007)
Degree Days  
Heating Degree Days 18    
Month to date heating degree days 314  
Moisture  
Dew Point 21 °F    
Average Humidity 35    
Maximum Humidity 59    
Minimum Humidity 20    
Precipitation  
Precipitation 0.00 in - - ()
Month to date precipitation 0.13  
Year to date precipitation 11.00  
Snow  
Snow 0.00 in - - ()
Snow Depth 0.00 in    
Sea Level Pressure  
Sea Level Pressure 30.04 in    
Wind  
Wind Speed 8 mph ()    
Max Wind Speed 30 mph    
Max Gust Speed 41 mph    
Visibility 10.0 miles    
Events      
Averages and records for this station are not official NWS values.
T = Trace of Precipitation, MM = Missing Value Source: Averaged Metar Reports

Daily Weather History Graph

Daily Weather History Graph

Search for Another Location

Airport or City:

Astronomy

Oct. 22, 2019 Rise Set
Actual Time 7:16 AM MDT 6:10 PM MDT
Civil Twilight 6:49 AM MDT 6:37 PM MDT
Nautical Twilight 6:17 AM MDT 7:09 PM MDT
Astronomical Twilight 5:46 AM MDT 7:40 PM MDT
Moon 12:31 AM MDT (10/22) 3:19 PM MDT (10/22)
Length of Visible Light 11h 48m
Length of Day
10h 53m
Last Quarter, 36% of the Moon is Illuminated
Oct 22
Last Quarter
Oct 27
New
Nov 4
First Quarter
Nov 12
Full
Nov 19
Last Quarter

Hourly Weather History & Observations

Time (MDT) Temp. Windchill Dew Point Humidity Pressure Visibility Wind Dir Wind Speed Gust Speed Precip Events Conditions
12:53 AM 43.0 °F 36.0 °F 17.1 °F 35% 30.12 in 10.0 mi NW 13.8 mph 27.6 mph N/A   Partly Cloudy
1:53 AM 39.9 °F 34.5 °F 18.0 °F 41% 30.14 in 10.0 mi West 8.1 mph - N/A   Partly Cloudy
2:53 AM 37.0 °F 32.4 °F 18.0 °F 46% 30.16 in 10.0 mi West 5.8 mph - N/A   Scattered Clouds
3:53 AM 37.9 °F 32.7 °F 18.0 °F 45% 30.15 in 10.0 mi West 6.9 mph - N/A   Scattered Clouds
4:53 AM 30.9 °F 25.2 °F 18.0 °F 59% 30.17 in 10.0 mi SSE 5.8 mph - N/A   Scattered Clouds
5:53 AM 33.1 °F 26.9 °F 18.0 °F 54% 30.17 in 10.0 mi SSW 6.9 mph - N/A   Partly Cloudy
6:53 AM 32.0 °F 24.8 °F 17.1 °F 54% 30.18 in 10.0 mi South 8.1 mph - N/A   Partly Cloudy
7:53 AM 35.1 °F 26.9 °F 17.1 °F 48% 30.17 in 10.0 mi South 11.5 mph - N/A   Partly Cloudy
8:53 AM 43.0 °F 38.2 °F 18.0 °F 37% 30.16 in 10.0 mi SSE 8.1 mph - N/A   Partly Cloudy
9:53 AM 48.9 °F - 19.0 °F 31% 30.13 in 10.0 mi SSE 6.9 mph - N/A   Partly Cloudy
10:53 AM 54.0 °F - 18.0 °F 24% 30.10 in 10.0 mi Variable 5.8 mph - N/A   Partly Cloudy
11:53 AM 55.9 °F - 19.9 °F 25% 30.06 in 10.0 mi North 4.6 mph - N/A   Partly Cloudy
12:53 PM 60.1 °F - 19.9 °F 21% 30.00 in 10.0 mi NNE 4.6 mph - N/A   Partly Cloudy
1:53 PM 63.0 °F - 21.0 °F 20% 29.95 in 10.0 mi NW 10.4 mph - N/A   Partly Cloudy
2:53 PM 62.1 °F - 21.0 °F 21% 29.94 in 10.0 mi North - - N/A   Partly Cloudy
2:56 PM 63.0 °F - 21.0 °F 20% 30.00 in 10.0 mi Variable 4.6 mph - N/A   Partly Cloudy
3:53 PM 64.0 °F - 23.0 °F 21% 29.93 in 10.0 mi NNE 9.2 mph - N/A   Scattered Clouds
4:53 PM 64.0 °F - 25.0 °F 23% 29.95 in 10.0 mi NNW 18.4 mph 25.3 mph N/A   Mostly Cloudy
5:53 PM 60.1 °F - 25.0 °F 26% 29.94 in 10.0 mi NW 20.7 mph 29.9 mph N/A   Mostly Cloudy
6:53 PM 57.9 °F - 26.1 °F 30% 29.96 in 10.0 mi WNW 19.6 mph 32.2 mph N/A   Mostly Cloudy
7:53 PM 57.9 °F - 25.0 °F 28% 29.95 in 10.0 mi West 16.1 mph 28.8 mph N/A   Mostly Cloudy
8:04 PM 57.9 °F - 25.0 °F 28% 30.00 in 10.0 mi West 11.5 mph 28.8 mph N/A   Mostly Cloudy
8:53 PM 55.0 °F - 26.1 °F 33% 29.91 in 10.0 mi West 8.1 mph - N/A   Mostly Cloudy
9:53 PM 50.0 °F - 26.1 °F 39% 29.92 in 10.0 mi SW 6.9 mph - N/A   Partly Cloudy
10:53 PM 48.0 °F - 25.0 °F 41% 29.88 in 10.0 mi South 4.6 mph - N/A   Partly Cloudy
11:53 PM 44.1 °F - 25.0 °F 47% 29.88 in 10.0 mi Calm Calm - N/A   Partly Cloudy